Location: Trebic
(49.2170°N, 15.8830°E)
Time: 01:13:03
(UTC+01:00)

Transit 4A - Pass Details

Date: 07 November 2020
Orbit: 862 x 982 km, 66.8° (Epoch: 28 November)

Event Time Altitude Azimuth Distance (km) Brightness Sun altitude
Rises 19:43:44 0° 323° (NW) 3,696 11.7 -32.5°
Reaches altitude 10° 19:46:35 10° 332° (NNW) 2,745 10.8 -33.0°
Enters shadow 19:50:11 27° 0° (N) 1,775 9.4 -33.5°
